Time,TemperatureF,DewpointF,PressureIn,WindDirection,WindDirectionDegrees,WindSpeedMPH,WindSpeedGustMPH,Humidity,HourlyPrecipIn,Conditions,Clouds,dailyrainin,SoftwareType,DateUTC
2014-02-05 00:11:00,37.6,30.7,29.97,NNE,22,4.7,-999.0,76,-99.99,,,0.00,Acu-Link.com,2014-02-05 06:11:00,
2014-02-05 00:26:00,37.0,30.2,29.98,NNW,337,4.2,-999.0,76,-99.99,,,0.00,Acu-Link.com,2014-02-05 06:26:00,
2014-02-05 00:41:00,36.9,30.4,29.98,NNW,337,7.3,-999.0,77,-99.99,,,0.00,Acu-Link.com,2014-02-05 06:41:00,
2014-02-05 00:56:00,36.5,30.0,29.99,NNW,337,7.8,-999.0,77,-99.99,,,0.00,Acu-Link.com,2014-02-05 06:56:00,
2014-02-05 01:11:00,36.1,29.6,30.00,NNE,22,11.9,-999.0,77,-99.99,,,0.00,Acu-Link.com,2014-02-05 07:11:00,
2014-02-05 01:26:00,35.6,28.5,30.00,NW,315,11.9,-999.0,75,-99.99,,,0.00,Acu-Link.com,2014-02-05 07:26:00,
2014-02-05 01:42:00,34.7,27.9,30.01,NNW,337,9.4,-999.0,76,-99.99,,,0.00,Acu-Link.com,2014-02-05 07:42:00,
2014-02-05 01:57:00,34.2,27.8,30.03,North,0,14.0,-999.0,77,-99.99,,,0.00,Acu-Link.com,2014-02-05 07:57:00,
2014-02-05 02:12:00,33.6,27.5,30.05,NE,45,6.8,-999.0,78,-99.99,,,0.00,Acu-Link.com,2014-02-05 08:12:00,
2014-02-05 02:27:00,33.1,25.7,30.06,NW,315,8.3,-999.0,74,-99.99,,,0.00,Acu-Link.com,2014-02-05 08:27:00,
2014-02-05 02:42:00,32.0,24.0,30.06,NNW,337,10.4,-999.0,72,-99.99,,,0.00,Acu-Link.com,2014-02-05 08:42:00,
2014-02-05 02:57:00,31.5,23.9,30.07,NNW,337,6.3,-999.0,73,-99.99,,,0.00,Acu-Link.com,2014-02-05 08:57:00,
2014-02-05 03:12:00,31.1,23.8,30.08,NNE,22,8.9,-999.0,74,-99.99,,,0.00,Acu-Link.com,2014-02-05 09:12:00,
2014-02-05 03:28:00,30.9,23.9,30.07,NNW,337,7.3,-999.0,75,-99.99,,,0.00,Acu-Link.com,2014-02-05 09:28:00,
2014-02-05 03:43:00,30.6,24.0,30.08,NNE,22,10.9,-999.0,76,-99.99,,,0.00,Acu-Link.com,2014-02-05 09:43:00,
2014-02-05 03:58:00,30.4,23.8,30.08,NE,45,9.4,-999.0,76,-99.99,,,0.00,Acu-Link.com,2014-02-05 09:58:00,
2014-02-05 04:13:00,30.6,24.0,30.10,North,0,10.4,-999.0,76,-99.99,,,0.00,Acu-Link.com,2014-02-05 10:13:00,
2014-02-05 04:28:00,30.0,22.7,30.09,NNE,22,11.9,-999.0,74,-99.99,,,0.00,Acu-Link.com,2014-02-05 10:28:00,
2014-02-05 04:43:00,29.8,22.5,30.10,NNE,22,13.0,-999.0,74,-99.99,,,0.00,Acu-Link.com,2014-02-05 10:43:00,
2014-02-05 04:58:00,29.8,22.9,30.11,NNW,337,8.9,-999.0,75,-99.99,,,0.00,Acu-Link.com,2014-02-05 10:58:00,
2014-02-05 05:13:00,29.3,22.4,30.12,NE,45,11.9,-999.0,75,-99.99,,,0.00,Acu-Link.com,2014-02-05 11:13:00,
2014-02-05 05:28:00,28.9,21.7,30.13,NNW,337,8.3,-999.0,74,-99.99,,,0.00,Acu-Link.com,2014-02-05 11:28:00,
2014-02-05 05:43:00,28.8,21.6,30.15,North,0,13.5,-999.0,74,-99.99,,,0.00,Acu-Link.com,2014-02-05 11:43:00,
2014-02-05 05:58:00,28.6,21.4,30.16,NNW,337,9.4,-999.0,74,-99.99,,,0.00,Acu-Link.com,2014-02-05 11:58:00,
2014-02-05 06:13:00,28.2,21.0,30.16,NE,45,17.1,-999.0,74,-99.99,,,0.00,Acu-Link.com,2014-02-05 12:13:00,
2014-02-05 06:28:00,28.4,21.2,30.17,NW,315,8.3,-999.0,74,-99.99,,,0.00,Acu-Link.com,2014-02-05 12:28:00,
2014-02-05 06:43:00,28.2,21.0,30.20,NNW,337,12.5,-999.0,74,-99.99,,,0.00,Acu-Link.com,2014-02-05 12:43:00,
2014-02-05 06:59:00,27.7,20.5,30.20,NNW,337,8.3,-999.0,74,-99.99,,,0.00,Acu-Link.com,2014-02-05 12:59:00,
2014-02-05 07:14:00,27.1,19.6,30.21,NNE,22,11.4,-999.0,73,-99.99,,,0.00,Acu-Link.com,2014-02-05 13:14:00,
2014-02-05 07:29:00,26.6,18.8,30.22,North,0,8.3,-999.0,72,-99.99,,,0.00,Acu-Link.com,2014-02-05 13:29:00,
2014-02-05 07:44:00,26.6,18.8,30.23,NNW,337,8.9,-999.0,72,-99.99,,,0.00,Acu-Link.com,2014-02-05 13:44:00,
2014-02-05 07:59:00,26.2,18.4,30.23,North,0,8.9,-999.0,72,-99.99,,,0.00,Acu-Link.com,2014-02-05 13:59:00,
2014-02-05 08:14:00,26.2,18.1,30.26,NW,315,9.4,-999.0,71,-99.99,,,0.00,Acu-Link.com,2014-02-05 14:14:00,
2014-02-05 08:29:00,26.2,18.1,30.28,NNE,22,8.3,-999.0,71,-99.99,,,0.00,Acu-Link.com,2014-02-05 14:29:00,
2014-02-05 08:44:00,26.6,18.5,30.27,NNE,22,9.9,-999.0,71,-99.99,,,0.00,Acu-Link.com,2014-02-05 14:44:00,
2014-02-05 08:59:00,26.8,19.0,30.28,NW,315,9.9,-999.0,72,-99.99,,,0.00,Acu-Link.com,2014-02-05 14:59:00,
2014-02-05 09:14:00,25.5,17.8,30.30,NW,315,9.9,-999.0,72,-99.99,,,0.00,Acu-Link.com,2014-02-05 15:14:00,
2014-02-05 09:29:00,25.3,16.9,30.32,NE,45,9.4,-999.0,70,-99.99,,,0.00,Acu-Link.com,2014-02-05 15:29:00,
2014-02-05 09:45:00,25.3,16.9,30.33,NW,315,9.9,-999.0,70,-99.99,,,0.00,Acu-Link.com,2014-02-05 15:45:00,
2014-02-05 10:01:00,26.1,17.3,30.32,NNE,22,10.9,-999.0,69,-99.99,,,0.00,Acu-Link.com,2014-02-05 16:01:00,
2014-02-05 10:16:00,26.1,17.0,30.34,North,0,6.8,-999.0,68,-99.99,,,0.00,Acu-Link.com,2014-02-05 16:16:00,
2014-02-05 10:31:00,27.1,17.3,30.34,NNE,22,8.9,-999.0,66,-99.99,,,0.00,Acu-Link.com,2014-02-05 16:31:00,
2014-02-05 10:46:00,27.3,17.5,30.34,NNW,337,6.3,-999.0,66,-99.99,,,0.00,Acu-Link.com,2014-02-05 16:46:00,
2014-02-05 11:01:00,27.3,16.8,30.34,NNE,22,7.8,-999.0,64,-99.99,,,0.00,Acu-Link.com,2014-02-05 17:01:00,
2014-02-05 11:16:00,27.1,16.6,30.34,NW,315,8.9,-999.0,64,-99.99,,,0.00,Acu-Link.com,2014-02-05 17:16:00,
2014-02-05 11:31:00,27.7,16.8,30.35,NE,45,8.9,-999.0,63,-99.99,,,0.00,Acu-Link.com,2014-02-05 17:31:00,
2014-02-05 11:46:00,27.5,15.5,30.34,NNW,337,9.4,-999.0,60,-99.99,,,0.00,Acu-Link.com,2014-02-05 17:46:00,
2014-02-05 12:01:00,27.1,15.5,30.34,NNW,337,11.4,-999.0,61,-99.99,,,0.00,Acu-Link.com,2014-02-05 18:01:00,
2014-02-05 12:16:00,27.5,15.8,30.34,NE,45,8.9,-999.0,61,-99.99,,,0.00,Acu-Link.com,2014-02-05 18:16:00,
2014-02-05 12:31:00,27.5,15.5,30.32,NNW,337,12.5,-999.0,60,-99.99,,,0.00,Acu-Link.com,2014-02-05 18:31:00,
2014-02-05 12:46:00,28.0,14.8,30.31,NNE,22,11.4,-999.0,57,-99.99,,,0.00,Acu-Link.com,2014-02-05 18:46:00,
2014-02-05 13:01:00,27.9,15.1,30.30,NE,45,13.5,-999.0,58,-99.99,,,0.00,Acu-Link.com,2014-02-05 19:01:00,
2014-02-05 13:17:00,28.4,15.1,30.30,NNW,337,13.5,-999.0,57,-99.99,,,0.00,Acu-Link.com,2014-02-05 19:17:00,
2014-02-05 13:32:00,28.4,15.1,30.30,NNW,337,11.4,-999.0,57,-99.99,,,0.00,Acu-Link.com,2014-02-05 19:32:00,
2014-02-05 13:47:00,28.8,15.5,30.29,NNW,337,10.4,-999.0,57,-99.99,,,0.00,Acu-Link.com,2014-02-05 19:47:00,
2014-02-05 14:02:00,28.4,15.1,30.28,North,0,15.5,-999.0,57,-99.99,,,0.00,Acu-Link.com,2014-02-05 20:02:00,
2014-02-05 14:18:00,28.2,14.5,30.27,North,0,13.5,-999.0,56,-99.99,,,0.00,Acu-Link.com,2014-02-05 20:18:00,
2014-02-05 14:33:00,27.1,13.9,30.26,NNE,22,9.4,-999.0,57,-99.99,,,0.00,Acu-Link.com,2014-02-05 20:33:00,
2014-02-05 14:48:00,28.2,14.5,30.26,NE,45,13.5,-999.0,56,-99.99,,,0.00,Acu-Link.com,2014-02-05 20:48:00,
2014-02-05 15:03:00,28.4,14.7,30.26,NE,45,13.0,-999.0,56,-99.99,,,0.00,Acu-Link.com,2014-02-05 21:03:00,
2014-02-05 15:18:00,28.2,14.9,30.25,NNE,22,9.4,-999.0,57,-99.99,,,0.00,Acu-Link.com,2014-02-05 21:18:00,
2014-02-05 15:33:00,27.3,14.5,30.24,NE,45,9.4,-999.0,58,-99.99,,,0.00,Acu-Link.com,2014-02-05 21:33:00,
2014-02-05 15:48:00,27.1,14.3,30.24,ENE,67,15.0,-999.0,58,-99.99,,,0.00,Acu-Link.com,2014-02-05 21:48:00,
2014-02-05 16:03:00,27.0,14.2,30.24,NE,45,11.9,-999.0,58,-99.99,,,0.00,Acu-Link.com,2014-02-05 22:03:00,
2014-02-05 16:18:00,26.8,14.4,30.24,NNE,22,7.8,-999.0,59,-99.99,,,0.00,Acu-Link.com,2014-02-05 22:18:00,
2014-02-05 16:33:00,26.2,14.2,30.24,NE,45,7.3,-999.0,60,-99.99,,,0.00,Acu-Link.com,2014-02-05 22:33:00,
2014-02-05 16:48:00,26.1,14.1,30.23,NE,45,10.4,-999.0,60,-99.99,,,0.00,Acu-Link.com,2014-02-05 22:48:00,
2014-02-05 17:04:00,26.1,14.1,30.23,North,0,8.9,-999.0,60,-99.99,,,0.00,Acu-Link.com,2014-02-05 23:04:00,
2014-02-05 17:19:00,25.5,13.9,30.23,NE,45,10.9,-999.0,61,-99.99,,,0.00,Acu-Link.com,2014-02-05 23:19:00,
2014-02-05 17:34:00,25.2,14.0,30.24,NNE,22,8.3,-999.0,62,-99.99,,,0.00,Acu-Link.com,2014-02-05 23:34:00,
2014-02-05 17:49:00,25.0,13.8,30.24,NNE,22,10.9,-999.0,62,-99.99,,,0.00,Acu-Link.com,2014-02-05 23:49:00,
2014-02-05 18:04:00,24.8,13.7,30.24,NE,45,7.8,-999.0,62,-99.99,,,0.00,Acu-Link.com,2014-02-06 00:04:00,
2014-02-05 18:20:00,24.6,13.8,30.25,NE,45,8.3,-999.0,63,-99.99,,,0.00,Acu-Link.com,2014-02-06 00:20:00,
2014-02-05 18:35:00,24.4,14.0,30.25,NE,45,11.9,-999.0,64,-99.99,,,0.00,Acu-Link.com,2014-02-06 00:35:00,
2014-02-05 18:50:00,24.4,14.0,30.25,NE,45,9.4,-999.0,64,-99.99,,,0.00,Acu-Link.com,2014-02-06 00:50:00,
2014-02-05 19:06:00,24.4,14.4,30.25,NNE,22,9.4,-999.0,65,-99.99,,,0.00,Acu-Link.com,2014-02-06 01:06:00,
2014-02-05 19:21:00,24.3,14.3,30.26,NNE,22,7.3,-999.0,65,-99.99,,,0.00,Acu-Link.com,2014-02-06 01:21:00,
2014-02-05 19:36:00,23.9,14.2,30.26,NNE,22,6.8,-999.0,66,-99.99,,,0.00,Acu-Link.com,2014-02-06 01:36:00,
2014-02-05 19:51:00,23.9,14.2,30.26,NE,45,8.9,-999.0,66,-99.99,,,0.00,Acu-Link.com,2014-02-06 01:51:00,
2014-02-05 20:06:00,23.9,14.2,30.26,NNW,337,6.3,-999.0,66,-99.99,,,0.00,Acu-Link.com,2014-02-06 02:06:00,
2014-02-05 20:21:00,23.5,14.2,30.27,NNW,337,7.3,-999.0,67,-99.99,,,0.00,Acu-Link.com,2014-02-06 02:21:00,
2014-02-05 20:37:00,23.5,14.2,30.27,NNE,22,7.3,-999.0,67,-99.99,,,0.00,Acu-Link.com,2014-02-06 02:37:00,
2014-02-05 20:52:00,23.4,14.1,30.28,NW,315,8.3,-999.0,67,-99.99,,,0.00,Acu-Link.com,2014-02-06 02:52:00,
2014-02-05 21:07:00,23.2,13.9,30.28,NNE,22,8.9,-999.0,67,-99.99,,,0.00,Acu-Link.com,2014-02-06 03:07:00,
2014-02-05 21:22:00,23.0,13.7,30.28,NNW,337,8.3,-999.0,67,-99.99,,,0.00,Acu-Link.com,2014-02-06 03:22:00,
2014-02-05 21:37:00,22.6,13.3,30.30,NW,315,11.9,-999.0,67,-99.99,,,0.00,Acu-Link.com,2014-02-06 03:37:00,
2014-02-05 21:52:00,22.6,13.3,30.29,NNE,22,6.8,-999.0,67,-99.99,,,0.00,Acu-Link.com,2014-02-06 03:52:00,
2014-02-05 22:07:00,22.5,13.2,30.29,North,0,6.8,-999.0,67,-99.99,,,0.00,Acu-Link.com,2014-02-06 04:07:00,
2014-02-05 22:22:00,22.3,12.7,30.29,NNW,337,9.4,-999.0,66,-99.99,,,0.00,Acu-Link.com,2014-02-06 04:22:00,
2014-02-05 22:38:00,22.1,12.8,30.30,NE,45,11.9,-999.0,67,-99.99,,,0.00,Acu-Link.com,2014-02-06 04:38:00,
2014-02-05 22:53:00,21.9,13.0,30.30,NNE,22,5.8,-999.0,68,-99.99,,,0.00,Acu-Link.com,2014-02-06 04:53:00,
2014-02-05 23:08:00,21.6,12.7,30.30,NNW,337,8.9,-999.0,68,-99.99,,,0.00,Acu-Link.com,2014-02-06 05:08:00,
2014-02-05 23:23:00,21.0,13.1,30.30,NNW,337,9.9,-999.0,71,-99.99,,,0.00,Acu-Link.com,2014-02-06 05:23:00,
2014-02-05 23:38:00,21.0,12.8,30.30,NNE,22,8.3,-999.0,70,-99.99,,,0.00,Acu-Link.com,2014-02-06 05:38:00,
2014-02-05 23:53:00,20.5,12.0,30.31,NNW,337,9.9,-999.0,69,-99.99,,,0.00,Acu-Link.com,2014-02-06 05:53:00,